Weather History for KEIK - July, 2013

Change the Weather History Date:

Thursday, July 11, 2013

  Actual Average (KDEN) Record (KDEN)
Temperature  
Mean Temperature 79 °F 74 °F  
Max Temperature 100 °F 89 °F 102 °F (1954)
Min Temperature 58 °F 59 °F 49 °F (1961)
Degree Days  
Heating Degree Days 0 0  
Month to date heating degree days 1  
Since 1 June heating degree days 63  
Since 1 July heating degree days 1  
Cooling Degree Days 14 9  
Month to date cooling degree days 92  
Year to date cooling degree days 247  
Since 1 June cooling degree days 225  
Growing Degree Days 29 (Base 50)    
Moisture  
Dew Point 48 °F    
Average Humidity 41    
Maximum Humidity 83    
Minimum Humidity 9    
Precipitation  
Precipitation 0.00 in 0.07 in 1.64 in (1872)
Month to date precipitation 0.63  
Year to date precipitation 8.14  
Snow  
Snow 0.00 in - - ()
Month to date snowfall  
Since 1 June snowfall  
Since 1 July snowfall  
Snow Depth -    
Sea Level Pressure  
Sea Level Pressure 30.04 in    
Wind  
Wind Speed 4 mph (South)    
Max Wind Speed 25 mph    
Max Gust Speed 38 mph    
Visibility 10 miles    
Events Rain , Thunderstorm    
T = Trace of Precipitation, MM = Missing Value Source: NWS Daily Summary

Daily Weather History Graph

Daily Weather History Graph

Search for Another Location

Airport or City:

Trip Planner

Search our weather history database for the weather conditions in past years. The results will help you decide how hot, cold, wet, or windy it might be!

Date:

Astronomy

Jul. 11, 2013 Rise Set
Actual Time 5:41 AM MDT 8:29 PM MDT
Civil Twilight 5:09 AM MDT 9:02 PM MDT
Nautical Twilight 4:28 AM MDT 9:42 PM MDT
Astronomical Twilight 3:42 AM MDT 10:28 PM MDT
Moon 9:02 AM MDT (7/11) 10:11 PM MDT (7/11)
Length of Visible Light 15h 52m
Length of Day
14h 48m
Waxing Crescent, 11% of the Moon is Illuminated
Jul 11
Waxing Crescent
Jul 15
First Quarter
Jul 22
Full
Jul 29
Last Quarter
Aug 6
New

Hourly Weather History & Observations

Time (MDT) Temp. Dew Point Humidity Pressure Visibility Wind Dir Wind Speed Gust Speed Precip Events Conditions
12:15 AM 68.0 °F 54.3 °F 62% 30.15 in 10.0 mi North 4.6 mph - N/A   Clear
12:35 AM 66.6 °F 54.9 °F 66% 30.14 in 10.0 mi NNW 4.6 mph - N/A   Clear
12:55 AM 66.6 °F 54.7 °F 66% 30.15 in 10.0 mi Calm Calm - N/A   Clear
1:15 AM 66.2 °F 55.2 °F 68% 30.14 in 10.0 mi Calm Calm - N/A   Clear
1:35 AM 65.1 °F 54.7 °F 69% 30.16 in 10.0 mi Calm Calm - N/A   Clear
1:55 AM 63.0 °F 53.8 °F 72% 30.14 in 10.0 mi Calm Calm - N/A   Clear
2:15 AM 62.2 °F 53.8 °F 74% 30.14 in 10.0 mi Calm Calm - N/A   Clear
2:35 AM 63.0 °F 54.5 °F 74% 30.14 in 10.0 mi Calm Calm - N/A   Clear
2:55 AM 61.2 °F 54.5 °F 79% 30.14 in 10.0 mi Calm Calm - N/A   Clear
3:15 AM 61.7 °F 54.3 °F 77% 30.14 in 10.0 mi Calm Calm - N/A   Clear
3:35 AM 61.5 °F 54.3 °F 77% 30.13 in 10.0 mi Calm Calm - N/A   Clear
3:55 AM 59.9 °F 54.3 °F 82% 30.12 in 10.0 mi Calm Calm - N/A   Clear
4:15 AM 59.5 °F 54.1 °F 82% 30.11 in 10.0 mi Calm Calm - N/A   Clear
4:35 AM 60.1 °F 54.1 °F 81% 30.11 in 10.0 mi Calm Calm - N/A   Clear
4:55 AM 59.2 °F 53.8 °F 82% 30.11 in 10.0 mi Calm Calm - N/A   Clear
5:15 AM 59.4 °F 53.8 °F 82% 30.11 in 10.0 mi Calm Calm - N/A   Clear
5:35 AM 59.4 °F 54.0 °F 82% 30.11 in 10.0 mi Calm Calm - N/A   Clear
5:55 AM 58.8 °F 53.8 °F 83% 30.12 in 10.0 mi SSW 3.5 mph - N/A   Clear
6:15 AM 59.9 °F 54.0 °F 81% 30.11 in 10.0 mi Calm Calm - N/A   Clear
6:35 AM 61.0 °F 54.7 °F 80% 30.11 in 10.0 mi Calm Calm - N/A   Clear
6:55 AM 63.3 °F 55.2 °F 75% 30.11 in 10.0 mi Calm Calm - N/A   Clear
7:15 AM 66.4 °F 54.9 °F 66% 30.11 in 10.0 mi Calm Calm - N/A   Clear
7:35 AM 69.1 °F 55.2 °F 61% 30.11 in 10.0 mi Calm Calm - N/A   Clear
7:55 AM 71.2 °F 53.2 °F 53% 30.11 in 10.0 mi Calm Calm - N/A   Clear
8:15 AM 72.7 °F 52.3 °F 49% 30.11 in 10.0 mi Calm Calm - N/A   Clear
8:35 AM 74.1 °F 52.3 °F 46% 30.10 in 10.0 mi Calm Calm - N/A   Clear
8:55 AM 76.1 °F 51.8 °F 43% 30.09 in 10.0 mi Calm Calm - N/A   Clear
9:15 AM 77.0 °F 51.6 °F 41% 30.09 in 10.0 mi Calm Calm - N/A   Clear
9:35 AM 79.0 °F 51.4 °F 38% 30.09 in 10.0 mi Calm Calm - N/A   Clear
9:55 AM 80.1 °F 51.8 °F 37% 30.08 in 10.0 mi ESE 6.9 mph - N/A   Clear
10:15 AM 81.7 °F 52.2 °F 36% 30.08 in 10.0 mi East 4.6 mph - N/A   Clear
10:35 AM 82.4 °F 52.2 °F 35% 30.07 in 10.0 mi East 3.5 mph - N/A   Clear
10:55 AM 84.6 °F 51.1 °F 31% 30.06 in 10.0 mi Calm Calm - N/A   Clear
11:15 AM 86.2 °F 50.2 °F 29% 30.06 in 10.0 mi East 5.8 mph - N/A   Clear
11:35 AM 88.9 °F 48.4 °F 25% 30.05 in 10.0 mi SE 6.9 mph - N/A   Clear
11:55 AM 90.0 °F 47.8 °F 23% 30.04 in 10.0 mi SSE 5.8 mph - N/A   Clear
12:15 PM 90.7 °F 48.2 °F 23% 30.04 in 10.0 mi ESE 4.6 mph - N/A   Clear
12:35 PM 92.3 °F 47.5 °F 21% 30.02 in 10.0 mi Calm Calm - N/A   Clear
12:55 PM 93.6 °F 46.9 °F 20% 30.01 in 10.0 mi Calm Calm - N/A   Clear
1:15 PM 94.8 °F 45.7 °F 18% 30.00 in 10.0 mi SW 3.5 mph - N/A   Clear
1:35 PM 96.8 °F 43.3 °F 16% 29.98 in 10.0 mi Calm Calm - N/A   Clear
1:55 PM 96.4 °F 41.7 °F 15% 29.98 in 10.0 mi Calm Calm - N/A   Clear
2:15 PM 97.5 °F 36.0 °F 12% 29.97 in 10.0 mi South 5.8 mph - N/A   Clear
2:35 PM 98.8 °F 32.5 °F 10% 29.97 in 10.0 mi South 5.8 mph - N/A   Clear
2:55 PM 99.0 °F 33.8 °F 10% 29.96 in 10.0 mi SSW 3.5 mph - N/A   Clear
3:15 PM 100.2 °F 31.8 °F 9% 29.95 in 10.0 mi West 3.5 mph - N/A   Clear
3:35 PM 98.1 °F 32.7 °F 10% 29.94 in 10.0 mi SW 9.2 mph - N/A   Clear
3:55 PM 98.6 °F 33.4 °F 10% 29.94 in 10.0 mi SSW 10.4 mph 21.9 mph N/A   Clear
4:15 PM 97.3 °F 33.1 °F 10% 29.93 in 10.0 mi South 6.9 mph - N/A   Clear
4:35 PM 99.3 °F 32.5 °F 10% 29.92 in 10.0 mi South 8.1 mph - N/A   Clear
4:55 PM 96.6 °F 36.0 °F 12% 29.92 in 10.0 mi SSE 8.1 mph - N/A   Clear
5:15 PM 95.9 °F 43.9 °F 17% 29.91 in 10.0 mi SE 13.8 mph 24.2 mph N/A   Clear
5:35 PM 96.1 °F 44.8 °F 17% 29.90 in 10.0 mi SSE 21.9 mph 27.6 mph N/A   Clear
5:55 PM 96.3 °F 44.2 °F 17% 29.90 in 10.0 mi SSE 20.7 mph 27.6 mph N/A   Clear
6:15 PM 95.0 °F 45.0 °F 18% 29.90 in 10.0 mi SSE 20.7 mph 27.6 mph N/A   Clear
6:35 PM 94.3 °F 46.8 °F 20% 29.90 in 10.0 mi SSE 20.7 mph 27.6 mph N/A   Clear
6:55 PM 93.0 °F 48.4 °F 22% 29.90 in 10.0 mi SSE 21.9 mph 26.5 mph N/A   Clear
7:15 PM 91.0 °F 49.6 °F 24% 29.91 in 10.0 mi SSE 21.9 mph 26.5 mph N/A   Clear
7:35 PM 89.8 °F 49.6 °F 25% 29.92 in 10.0 mi SSE 18.4 mph 27.6 mph N/A   Clear
7:55 PM 88.7 °F 50.4 °F 27% 29.93 in 10.0 mi SSE 18.4 mph 27.6 mph N/A   Clear
8:15 PM 88.0 °F 48.2 °F 25% 29.94 in 10.0 mi South 15.0 mph 26.5 mph N/A   Clear
8:35 PM 86.4 °F 42.8 °F 22% 29.94 in 10.0 mi South 15.0 mph 26.5 mph N/A   Clear
8:55 PM 85.1 °F 42.3 °F 22% 29.94 in 10.0 mi South 9.2 mph - N/A   Clear
9:15 PM 85.1 °F 42.8 °F 23% 29.96 in 10.0 mi SSW 25.3 mph 38.0 mph N/A   Clear
9:35 PM 80.6 °F 48.4 °F 32% 29.99 in 10.0 mi SSW 20.7 mph 33.4 mph N/A Thunderstorm Clear
9:55 PM 78.8 °F 46.4 °F 32% 29.99 in 10.0 mi SSW 24.2 mph 32.2 mph N/A Rain Light Rain
10:15 PM 80.6 °F 47.8 °F 32% 30.03 in 10.0 mi SW 12.7 mph 34.5 mph N/A Rain , Thunderstorm Light Thunderstorms and Rain
10:35 PM 77.4 °F 50.0 °F 38% 30.04 in 10.0 mi WSW 10.4 mph - N/A Rain , Thunderstorm Light Thunderstorms and Rain
10:55 PM 78.1 °F 47.3 °F 34% 30.02 in 10.0 mi ESE 11.5 mph - N/A Rain Light Rain
11:15 PM 76.1 °F 51.4 °F 42% 30.02 in 10.0 mi SW 9.2 mph - N/A   Mostly Cloudy
11:35 PM 76.6 °F 49.3 °F 38% 30.03 in 10.0 mi West 9.2 mph - N/A Rain , Thunderstorm Light Thunderstorms and Rain
11:55 PM 77.7 °F 47.5 °F 34% 30.02 in 10.0 mi SSE 5.8 mph - N/A   Scattered Clouds